Flag for China Weather past 2 weeks in Hangzhou, Zhejiang, China

Now
54 °F

Sprinkles. Fog.


Feels Like: 50 °F
Forecast: 53 / 64 °F
Wind: 10 mph from North

Location: Hangzhou Airport

Current Time: Apr 20, 2015 at 5:44:37 AM

Latest Report: Apr 20, 2015 at 5:00 AM


Visibility: 3 mi

Pressure: 29.83 "Hg

Humidity: 82%

Dew point: 48 °F

Location of HangzhouLocation

Historic Weather in Hangzhou — Graph

°F

Hangzhou temperature yesterday

Maximum temperature yesterday: 77 °F (at 12:30 PM)
Minimum temperature yesterday: 63 °F (at 11:30 PM)
Average temperature yesterday: 71 °F

Past Weeks' High & Low Weather Summary

 TemperatureHumidityPressure
High82 °F (Apr 18, 3:00 PM)88% (Apr 5, 4:00 AM)30.45 "Hg (Apr 5, 4:00 AM)
Low43 °F (Apr 7, 5:00 PM)21% (Apr 15, 12:00 PM)29.59 "Hg (Apr 19, 3:00 PM)
Average59 °F60%30.05 "Hg
* Reported Apr 5 4:00 AM — Apr 20 4:30 AM, Hangzhou, Weather by CustomWeather, © 2015

Note: Actual official high and low records may vary slightly from our data, if they occured in-between our weather recording intervals... More about our weather records

Advertising

Hangzhou weather history for previous 24 hours

 ConditionsComfort  
Time TempWeatherWind HumidityBarometerVisibility
4:30 AM
Mon, Apr 20
54 °FPartly cloudy.13 mph82%29.83 "HgN/A
4:00 AM55 °FPartly cloudy.10 mph77%29.80 "HgN/A
3:30 AM55 °FPartly cloudy.13 mph77%29.80 "HgN/A
3:00 AM55 °FSprinkles. Partly cloudy.10 mph82%29.80 "Hg4 mi
2:30 AM55 °FSprinkles. Partly cloudy.10 mph82%29.80 "Hg4 mi
2:00 AM55 °FSprinkles. Partly cloudy.15 mph82%29.77 "Hg4 mi
1:30 AM57 °FSprinkles. Partly cloudy.13 mph82%29.77 "Hg4 mi
1:00 AM57 °FRain showers. Fog.15 mph82%29.77 "Hg2 mi
12:30 AM57 °FRain showers. Fog.15 mph88%29.77 "Hg2 mi
12:00 AM59 °FSprinkles. Partly cloudy.17 mph82%29.74 "Hg4 mi
11:30 PM
Sun, Apr 19
63 °FSprinkles. Partly cloudy.15 mph83%29.71 "Hg4 mi
11:00 PM68 °FRain showers. Fog.8 mph83%29.71 "Hg1 mi
10:30 PM68 °FRain showers. Fog.10 mph83%29.68 "Hg1 mi
10:00 PM70 °FRain showers. Fog.3 mph83%29.68 "Hg1 mi
9:30 PM70 °FLight rain. Fog.3 mph78%29.68 "Hg2 mi
9:00 PM72 °FLight rain. Passing clouds.6 mph73%29.65 "Hg2 mi
8:30 PM72 °FPassing clouds.6 mph73%29.65 "Hg2 mi
8:00 PM72 °FPassing clouds.6 mph69%29.65 "Hg2 mi
7:30 PM72 °FPassing clouds.3 mph73%29.65 "Hg2 mi
7:00 PM73 °FPassing clouds.1 mph65%29.62 "Hg2 mi
6:30 PM73 °FPassing clouds.1 mph65%29.62 "Hg2 mi
6:00 PM73 °FScattered clouds.1 mph69%29.62 "Hg2 mi
5:30 PM73 °FScattered clouds.3 mph65%29.62 "Hg2 mi
5:00 PM75 °FScattered clouds.6 mph61%29.59 "Hg2 mi
4:30 PM75 °FScattered clouds.3 mph61%29.62 "Hg2 mi
4:00 PM75 °FScattered clouds.6 mph61%29.59 "Hg2 mi
3:30 PM77 °FScattered clouds.3 mph57%29.59 "Hg2 mi
3:00 PM77 °FScattered clouds.1 mph57%29.59 "Hg2 mi
2:30 PM75 °FScattered clouds.6 mph57%29.62 "Hg2 mi
2:00 PM77 °FHaze.1 mph54%29.65 "Hg2 mi
1:30 PM77 °FHaze.3 mph54%29.65 "Hg2 mi
1:00 PM77 °FScattered clouds.1 mph57%29.65 "Hg2 mi
12:30 PM77 °FScattered clouds.1 mph57%29.68 "Hg2 mi
12:00 PM75 °FScattered clouds.No wind61%29.68 "Hg2 mi
11:30 AM75 °FScattered clouds.No wind57%29.71 "Hg2 mi
11:00 AM73 °FScattered clouds.1 mph65%29.71 "Hg2 mi
10:30 AM72 °FScattered clouds.3 mph69%29.71 "Hg2 mi
10:00 AM70 °FFog.1 mph73%29.71 "Hg2 mi
9:30 AM68 °FFog.1 mph78%29.74 "Hg2 mi
9:00 AM68 °FFog.3 mph73%29.74 "Hg2 mi
8:30 AM66 °FFog.1 mph83%29.74 "Hg2 mi
8:00 AM66 °FFog.No wind78%29.74 "Hg2 mi
7:00 AM66 °FFog.1 mph78%29.74 "Hg2 mi
6:30 AM66 °FFog.6 mph78%29.74 "Hg2 mi
6:00 AM66 °FFog.6 mph78%29.71 "Hg2 mi
5:30 AM66 °FFog.3 mph78%29.71 "Hg3 mi
5:00 AM66 °FPassing clouds.3 mph78%29.71 "Hg5 mi
Weather by CustomWeather, © 2015

See weather overviewHow to use our weather pages